SL-14 DEB

Satellite information

Favourite Embed

Satellite Type and Status

DEBRISIN ORBIT

Key statistics

Satellite SL-14 DEB at a glance.

Uptime

13941

Days in orbit

Revolutions

≈ 13.9

Per day

Orbit

LEO

Low Earth Orbit

Inclination

82.5

Latest

Satellite identification and parameters

Extended collection of information and parameters for SL-14 DEB.

Object identification

Identified? True

Debris? True

Object name: SL-14 DEB

International designator: 1987-068CK

Object number (NORAD): 27628

Object ID (CCSDS): 27628

Country: COMMONWEALTH OF INDEPENDENT STATES (CIS)

Current information (Y/N): Y

RCS size: SMALL

Orbital parameters

Period: 103.305 minutes

Inclination: 82.5173 deg

SMA: 7293.036 km

Apoapsis: 933.768 km

Periapsis: 896.033 km

RAAN: 346.5769 deg

Eccentricy: 0.00258705

Argument of periapsis: 8.391 deg

Mean anomaly: 351.7683 deg

Mean motion: 13.93927768 rev/day

Mean motion (dot): 0.00000236 rev/day2

B* drag term: 0.00016657587 1/REarth

Two-line elements (TLE)

Creation date: Oct. 16, 2025, 6:34 p.m.

Reference frame: TEME

Reference center: EARTH

Epoch: Oct. 16, 2025, 9:41 a.m. UTC

TLE line 0: 0 SL-14 DEB

TLE line 1: 1 27628U 87068CK 25289.40404605 .00000236 00000-0 16658-3 0 9993

TLE line 2: 2 27628 82.5173 346.5769 0025870 8.3910 351.7683 13.93927768322102

Live tracking on map

Real-time ground track for satellite SL-14 DEB.

In-orbit conjunctions

A list of the most updated potential collisions computed for object SL-14 DEB.

Target Orbit TCA Probability of collision Miss distance Type
CZ-6A DEB LEO 2025-02-06 05:02:37 0.0001339432 190.0 (m) DEBRIS
LANDSAT 3 SSO 2024-10-06 00:20:43 0.0005155522 222.0 (m) PAYLOAD

Associated space launch

Second generation soviet meteorological satellite

SL-14 DEB was lifted into orbit during the mission ‘Tsiklon-3 | Meteor-2 16’, on board a Tsiklon-3 space rocket.

The launch took place on Aug. 18, 1987, 2:27 a.m. from 32/1.

For more information about the launch, click the button.

Launch to space Tsiklon-3 | Meteor-2 16
Tsiklon-3 | Meteor-2 16

Agency: N/A

Status: Launch Successful

Launch date: Aug. 18, 1987, 2:27 a.m. UTC

Rocket: Tsiklon-3

Launch pad: 32/1

Location: Plesetsk Cosmodrome, Russian Federation

...

Latest news about this satellite

There are no fresh news available about this satellite. Check back as we update our databases every day.


Newsletter sign-up

Weekly statistics, charts and insights to help you stay on top of the space industry.